Weather in Makarovo

Russia / Republic of Bashkortostan     53°38′35″N   56°36′50″E
temp.,
°C
wind,
m/s
gust,
m/s
humid.,
%
clouds,
%
prec.,
mm/h
press.,
hPa
HPBL,
m
1 august, sun
sun123:00+18s348886 0.9 100962
02:00+18s22855 0.1 101032
05:00+17s33905 0.3 101153
08:00+20ssw23793 0.0 1012212
11:00+26wsw365619 0.1 10121420
14:00+29nw473957 0.1 10112019
17:00+31wnw572611 0.1 10113006
20:00+26wsw1138100 0.0 101111
2 august, mon
mon223:00+22ese114381 0.0 101212
02:00+18ese115438 0.0 101311
05:00+17se1158100 0.0 101411
08:00+21wsw115079 0.0 1015140
11:00+27nnw243826 0.0 10151090
14:00+30nw34266 0.0 10142183
17:00+31nnw232493 0.0 10132336
20:00+25e224671 0.0 101422
3 august, tue
tue323:00+20ese22586 0.0 101515
02:00+18ese22610 0.0 101416
05:00+17ese226425 0.0 101513
08:00+22ese12505 0.0 1015128
11:00+31sw24265 0.0 10141091
14:00+34w24205 0.0 10133171
17:00+36w041996 0.0 10113579
20:00+28ese37401 0.0 1011124
4 august, wed
wed423:00+24ese224723 0.0 101131
02:00+22ese224878 0.0 101119
05:00+21ese324986 0.0 101130
08:00+25se26435 0.0 1011197
11:00+34sw34215 0.0 1011991
14:00+38wsw2715100 0.0 10084830
17:00+27ene584198 0.0 1009203
20:00+27e4941100 0.0 1009214
5 august, thu
thu523:00+26ese51237100 0.0 1009256
02:00+20sse0056100 0.0 101112
05:00+18n2266100 0.1 101234
08:00+22ene28575 0.1 1009233
11:00+30n333448 0.1 1009868
14:00+32n4228100 0.0 10082146
17:00+31nne4433100 0.0 1006765
20:00+18n2795100 2.3 1009382